Location: Damada
(14.7329°N, 3.1761°W)
Time: 05:24:16
(UTC+00:00)

Cosmos 1503 Rocket - Pass Details

Date: 18 February 2020
Orbit: 753 x 790 km, 74.0° (Epoch: 31 March)

Event Time Altitude Azimuth Distance (km) Brightness Sun altitude
Rises 18:57:24 0° 356° (N) 3,235 7.2 -10.3°
Reaches altitude 10° 18:59:53 10° 3° (N) 2,302 6.4 -10.8°
Maximum altitude 19:04:52 45° 75° (ENE) 1,026 4.2 -12.0°
Drops below altitude 10° 19:09:48 10° 148° (SSE) 2,279 6.2 -13.2°
Sets 19:12:14 0° 154° (SSE) 3,199 7.0 -13.8°
